EW3182 Weather Reports


time (UTC)temp
F
wind
direction
speed
knots
gust
knots
rain 1hr
in
rain 24hr
in
rain mn
in
humidity
%
barometer
mb
20260505230028 83 308 0.0 1.7 0.00 0.00 0.00 59 1002.8
20260505224525 84 304 0.0 0.9 0.00 0.00 0.00 54 1002.2
20260505223023 85 340 0.0 0.9 0.00 0.00 0.00 51 1002.3
20260505221522 88 121 0.0 0.9 0.00 0.00 0.00 51 1002.1
20260505220042 90 13 0.0 0.9 0.00 0.00 0.00 48 1001.8
20260505214528 91 105 0.0 1.7 0.00 0.00 0.00 46 1001.9
20260505213021 92 173 0.0 3.5 0.00 0.00 0.00 47 1001.9
20260505211517 92 241 0.0 1.7 0.00 0.00 0.00 49 1002.1
20260505210015 92 307 0.0 1.7 0.00 0.00 0.00 48 1002.3
20260505204512 91 260 0.0 4.3 0.00 0.00 0.00 50 1002.4
20260505203012 91 194 0.0 2.6 0.00 0.00 0.00 52 1002.5
20260505201507 90 257 0.0 3.5 0.00 0.00 0.00 54 1002.8
20260505200006 90 139 0.9 4.3 0.00 0.00 0.00 55 1002.9
20260505194501 89 113 0.0 5.2 0.00 0.00 0.00 58 1003.1
20260505193100 88 215 1.7 6.1 0.00 0.00 0.00 55 1003.0
20260505191558 88 276 0.0 5.2 0.00 0.00 0.00 60 1002.9
20260505190053 86 218 0.0 3.5 0.00 0.00 0.00 61 1003.1
20260505184553 84 293 0.9 4.3 0.00 0.00 0.00 64 1003.3
20260505183052 84 211 1.7 7.0 0.00 0.00 0.00 63 1003.3
20260505181544 83 208 0.9 5.2 0.00 0.00 0.00 66 1003.3
20260505180042 82 91 0.9 7.8 0.00 0.00 0.00 67 1003.4
20260505174542 82 241 1.7 6.1 0.00 0.00 0.00 67 1003.4
20260505173039 82 259 0.9 6.1 0.00 0.00 0.00 67 1003.5
20260505171537 81 194 0.9 7.0 0.00 0.00 0.00 68 1003.6
20260505170036 81 174 1.7 9.6 0.00 0.00 0.00 68 1003.5
20260505164552 81 276 1.7 6.1 0.00 0.00 0.00 69 1003.6
20260505163036 80 207 0.0 7.0 0.00 0.00 0.00 71 1003.4
20260505161537 80 153 1.7 8.7 0.00 0.00 0.00 71 1003.5
20260505153021 76 257 0.9 9.6 0.00 0.00 0.00 77 1003.2
20260505151519 76 259 2.6 7.8 0.00 0.00 0.00 77 1003.4
20260505124508 70 281 1.7 7.0 0.00 0.00 0.00 80 1002.8
20260505123011 70 236 1.7 6.1 0.00 0.00 0.00 80 1002.7
20260505121505 0 0.0 0.0 0.00 0.00 0.00 1002.4
20260505120000 0 0.0 0.0 0.00 0.00 0.00 1002.2
20260505114557 0 0.0 0.0 0.00 0.00 0.00 1002.3
20260505113111 0 0.0 0.0 0.00 0.00 0.00 1002.0
20260505111548 0 0.0 0.0 0.00 0.00 0.00 1002.1
20260505101530 0 0.0 0.0 0.00 0.00 0.00 1002.2
20260505100026 0 0.0 0.0 0.00 0.00 0.00 1002.2
20260505094521 0 0.0 0.0 0.00 0.00 0.00 1002.1
20260505093018 0 0.0 0.0 0.00 0.00 0.00 1002.4
20260505091515 71 294 3.5 9.6 0.00 0.00 0.00 80 1002.6
20260505090012 71 273 1.7 8.7 0.00 0.00 0.00 80 1002.6
20260505084532 71 199 0.0 6.1 0.00 0.00 0.00 80 1002.6
20260505083009 71 289 1.7 7.8 0.00 0.00 0.00 80 1002.7
20260505081515 71 315 0.9 7.0 0.00 0.00 0.00 80 1002.7
20260505080005 72 165 1.7 9.6 0.00 0.00 0.00 79 1002.7
20260505074507 72 302 2.6 7.8 0.00 0.00 0.00 79 1002.8
20260505073108 72 243 1.7 8.7 0.00 0.00 0.00 78 1003.2
20260505071559 72 290 1.7 8.7 0.00 0.00 0.00 77 1003.5
20260505070055 72 250 1.7 7.0 0.00 0.00 0.00 77 1003.8
20260505064559 72 93 0.9 7.8 0.00 0.00 0.00 76 1003.9
20260505063054 73 278 1.7 7.8 0.00 0.00 0.00 75 1004.1
20260505061551 73 274 1.7 7.8 0.00 0.00 0.00 74 1004.1
20260505060046 74 260 0.9 7.8 0.00 0.00 0.00 73 1004.2
20260505054546 74 294 1.7 7.0 0.00 0.00 0.00 73 1004.1
20260505053107 74 124 0.9 6.1 0.00 0.00 0.00 73 1004.1
20260505051542 74 288 0.9 7.8 0.00 0.00 0.00 73 1004.1
20260505041543 74 238 0.9 7.0 0.00 0.00 0.00 72 1004.4
20260505040039 74 245 0.0 9.6 0.00 0.00 0.00 72 1004.5
20260505034538 74 264 2.6 8.7 0.00 0.00 0.00 71 1004.5
20260505033045 75 291 3.5 7.8 0.00 0.00 0.00 71 1004.4
20260505031536 75 139 1.7 7.0 0.00 0.00 0.00 71 1004.4
20260505030036 75 311 0.9 7.0 0.00 0.00 0.00 70 1004.5
20260505024535 75 262 2.6 8.7 0.00 0.00 0.00 70 1004.6
20260505023035 75 239 1.7 6.1 0.00 0.00 0.00 69 1004.4
20260505021534 75 236 0.9 7.0 0.00 0.00 0.00 69 1004.2
20260505020033 75 159 1.7 6.1 0.00 0.00 0.00 68 1004.3
20260505014533 76 252 1.7 7.8 0.00 0.00 0.00 68 1004.2
20260505013032 76 295 0.9 7.0 0.00 0.00 0.00 68 1004.4
20260505011553 76 289 2.6 9.6 0.00 0.00 0.00 67 1004.3
20260505010031 76 205 1.7 7.8 0.00 0.00 0.00 67 1004.4
20260505004531 76 243 2.6 12.2 0.00 0.00 0.00 66 1004.3
20260505003030 77 287 2.6 13.0 0.00 0.00 0.00 65 1004.4
20260505001529 77 180 2.6 8.7 0.00 0.00 0.00 65 1004.5
20260505000037 77 264 1.7 7.8 0.00 0.00 0.00 64 1004.6
20260504234529 78 205 1.7 8.7 0.00 0.00 0.00 64 1004.6
20260504233025 78 152 2.6 8.7 0.00 0.00 0.00 63 1005.0
20260504231524 78 215 1.7 9.6 0.00 0.00 0.00 63 1004.9